Regional Weather Roundup
Issued by NWS

Home | Current Version | Previous Version | Graphics & Text | Print | Product List | Glossary On
Versions: 1 2 3 4 5 6 7 8 9 10 11 12 13 14 15 16 17 18 19 20 21 22 23 24 25 26 27 28 29 30 31 32 33 34 35 36 37 38 39 40 41 42 43 44 45 46 47 48 49 50
000
ASUS45 KBOU 031507
RWRCO

WEATHER ROUNDUP FOR COLORADO
NATIONAL WEATHER SERVICE DENVER/BOULDER CO
900 AM MDT THU SEP 03 2015

NOTE: "FAIR" INDICATES FEW OR NO CLOUDS BELOW 12000 FEET WITH NO
SIGNIFICANT WEATHER AND/OR OBSTRUCTIONS TO VISIBILITY.

COZ001>005-013-030-031-031600-
...NORTHWEST COLORADO...

CITY           SKY/WX    TMP DP  RH WIND       PRES   REMARKS
CRAIG          PTSUNNY   59  50  72 CALM      30.14S
HAYDEN         NOT AVBL
MEEKER         PTSUNNY   59  51  75 N3        30.16S
MOUNT WERNER   NOT AVBL
STEAMBOAT SPGS PTSUNNY   55  47  74 CALM      30.19S
WALDEN         PTSUNNY   54  41  62 CALM      30.27S
$$

COZ006>008-011-031600-
...WEST CENTRAL VALLEYS...

CITY           SKY/WX    TMP DP  RH WIND       PRES   REMARKS
GRAND JUNCTION CLOUDY    70  50  49 SE15      30.08R
MONTROSE       CLOUDY    60  56  86 SE8       30.21S
EAGLE          SUNNY     57  46  67 CALM      30.23S
RIFLE          PTSUNNY   61  51  70 CALM      30.14S
DELTA          RAIN      64  56  73 N5        30.19R
NUCLA          CLOUDY    63  54  72 SE3       30.23S
$$

COZ017>023-064>068-031600-
...SOUTHWEST COLORADO...

CITY           SKY/WX    TMP DP  RH WIND       PRES   REMARKS
DURANGO        CLOUDY    62  51  67 N3        30.25R
CORTEZ         CLOUDY    64  57  78 CALM      30.20R
PAGOSA SPRINGS CLOUDY    56  48  72 CALM      30.32S
TELLURIDE      CLOUDY    51  49  95 CALM      30.40S
WOLF CREEK PAS NOT AVBL
$$

COZ009-010-012-014-032>034-037-058>063-031600-
...CENTRAL COLORADO...

CITY           SKY/WX    TMP DP  RH WIND       PRES   REMARKS
ASPEN          CLOUDY    58  46  64 CALM      30.26S
BUENA VISTA    CLOUDY    58  44  59 CALM      30.28S
COPPER MTN     CLOUDY    52  37  58 W7        30.55S
BERTHOUD PASS  CLOUDY    43  32  65 NW5       30.59S
COTTONWOOD PAS PTSUNNY   59  39  47 E6        30.40R THUNDER
GUNNISON       CLOUDY    50  46  87 NE5       30.35S
KREMMLING      MOSUNNY   52  45  76 CALM      30.28R
LEADVILLE      CLOUDY    50  45  83 CALM      30.39S
MONARCH PASS   CLOUDY    45  37  76 SW12      30.64S
SALIDA         CLOUDY    60  47  61 CALM      30.34R
SUNLIGHT       PTSUNNY   52  45  76 CALM      30.48S THUNDER
WILKERSON PASS CLOUDY    52  36  54 NW3       30.52R
$$

COZ069>075-031600-
...SAN LUIS VALLEY/SANGRE DE CRISTO MOUNTAINS...

CITY           SKY/WX    TMP DP  RH WIND       PRES   REMARKS
ALAMOSA        MOSUNNY   57  50  77 CALM      30.27F
LA VETA PASS   CLOUDY    46  39  76 S8        30.40S
SAGUACHE       CLOUDY    55  45  67 NW12      30.31S
$$

COZ035-036-038>040-031600-
...NORTHERN COLORADO FRONT RANGE...

CITY           SKY/WX    TMP DP  RH WIND       PRES   REMARKS
DENVER INTL AP CLOUDY    74  44  34 NW3       30.05R
DMNS CITY PARK   N/A     70  50  48 E9        30.04S
AURORA         PTSUNNY   72  45  38 SW2       30.07S
FRONT RANGE AP CLOUDY    73  43  33 NW7       30.06S
ERIE MUNI ARPT CLOUDY    72  49  44 CALM      30.03S
BOULDER MUN AP CLOUDY    72  46  40 CALM      30.04S
CENTENNIAL     CLOUDY    71  47  42 S3        30.07F
BROOMFIELD     PTSUNNY   75  45  33 CALM      30.07S
FORT COLLINS   CLOUDY    72  48  43 S6        30.03S
LONGMONT       CLOUDY    72  52  49 CALM      30.04S
$$

COZ041-046-047-076>085-087-088-031600-
...PIKES PEAK/PALMER DIVIDE AND SOUTHERN FOOTHILLS...

CITY           SKY/WX    TMP DP  RH WIND       PRES   REMARKS
COLO. SPRINGS  PTSUNNY   75  42  30 NW6       30.10R
A. F. ACADEMY  CLOUDY    71  43  36 N9        30.12R
ELLICOTT       PTSUNNY  N/A N/A N/A N14       30.07S
FALCON         CLOUDY    71  39  31 MISG      30.15R
FORT CARSON    CLOUDY    73  49  41 N6        30.06S
LIMON          CLOUDY    72  47  40 W6        30.04R
MONUMENT HILL  CLOUDY    68  41  37 CALM      30.17S
TRINIDAD       PTSUNNY   68  48  48 W7        30.08S
$$

COZ042>045-048>051-090-091-031600-
...NORTHEAST COLORADO...

CITY           SKY/WX    TMP DP  RH WIND       PRES   REMARKS
GREELEY ARPT   CLOUDY    66  52  59 CALM      30.02R
AKRON          PTSUNNY   71  45  39 W15       29.98R
BURLINGTON     PTSUNNY   78  46  32 NW7       29.94S
WRAY           CLOUDY    79  49  33 W3        29.90S
STERLING       PTSUNNY   68  54  60 S3        29.94R
HOLYOKE        MOSUNNY   79  54  41 NW5       29.90S
FORT MORGAN    CLOUDY    63  51  65 W7        30.01R
$$

COZ086-089-092>099-031600-
...SOUTHEAST COLORADO...

CITY           SKY/WX    TMP DP  RH WIND       PRES   REMARKS
PUEBLO         PTSUNNY   78  45  30 W6        29.99R
LA JUNTA       PTSUNNY   78  46  32 W9        29.95S
LAMAR          CLOUDY    75  56  51 W5        29.91S
SPRINGFIELD      N/A     82  48  30 NW8       29.96F
$$



USA.gov is the U.S. government's official web portal to all federal, state and local government web resources and services.